Regional Weather Roundup
Issued by NWS

Home | Current Version | Previous Version | Graphics & Text | Print | Product List | Glossary On
Versions: 1 2 3 4 5 6 7 8 9 10 11 12 13 14 15 16 17 18 19 20 21 22 23 24 25 26 27 28 29 30 31 32 33 34 35 36 37 38 39 40 41 42 43 44 45 46 47 48 49 50
000
ASUS45 KSLC 222310
RWRUT

UTAH REGIONAL WEATHER ROUNDUP
NATIONAL WEATHER SERVICE SALT LAKE CITY UT
500 PM MDT FRI MAY 22 2015

UTZ001>011-023>025-230000-

NORTHERN UTAH

CITY           SKY/WX    TMP DP  RH WIND       PRES   REMARKS
BRIGHAM CITY   CLOUDY    63  41  44 SW12      29.88S
HILL AFB       CLOUDY    59  45  59 S10       29.88F
LOGAN          LGT RAIN  53  45  74 N9        29.89R
OGDEN          CLOUDY    62  44  51 SE8       29.87F
PROVO AIRPORT  CLOUDY    61  39  44 N8        29.88F
SALT LAKE CITY CLOUDY    61  40  45 E7        29.87F
VERNAL         CLOUDY    60  39  45 S13       29.94R
WENDOVER       PTSUNNY   64  43  45 S7        29.86S
HEBER CITY     CLOUDY    52  37  58 CALM      29.93F
WEST JORDAN    PTSUNNY   59  43  55 E3        29.89F

$$

UTZ012>022-026-027-230000-

SOUTHERN/CENTRAL UTAH

CITY           SKY/WX    TMP DP  RH WIND       PRES   REMARKS
BLANDING       PTSUNNY   65  24  21 SE13G18   29.95F
BRYCE CANYON   PTSUNNY   54  26  34 S10       29.95F
CEDAR CITY     LGT RAIN  47  39  74 S8G17     29.96R
DELTA          CLOUDY    53  45  75 NE9       29.92R
HANKSVILLE     PTSUNNY   72  23  16 S16G22    29.79F
MILFORD        PTSUNNY   64  36  35 N16       29.87S
MOAB/CYNLANDS  SUNNY     74  22  14 S13G18    29.78S
PRICE          CLOUDY    53  39  59 N12       29.91F
ST GEORGE      CLOUDY    63  37  39 SE16      29.92R
KANAB          CLOUDY    50  39  66 S7        30.01R

$$

REGIONAL REPORTS     COLORADO/ARIZONA

CITY           SKY/WX    TMP DP  RH WIND       PRES   REMARKS
CRAIG, CO      CLOUDY    50  40  68 CALM      29.99R
GRAND JUNCTION PTSUNNY   64  38  38 NE10      29.85F
RIFLE          PTSUNNY   58  41  53 N7        29.92F
MONTROSE       PTSUNNY   66  27  23 SW8       29.91S
CORTEZ         RAIN      53  46  77 E9        29.96F
PAGE, AZ       CLOUDY    63  34  33 SW10G21   29.85
GRAND CANYON   NOT AVBL
KINGMAN        LGT RAIN  57  42  57 S15G31    29.91R
FLAGSTAFF      PTSUNNY   50  27  40 SW18G29   29.98F

$$

REGIONAL REPORTS    NEVADA/IDAHO/WYOMING

CITY           SKY/WX    TMP DP  RH WIND       PRES   REMARKS
LAS VEGAS, NV  PTSUNNY   70  39  32 S22G38    29.79R
ELY            TSTM      49  40  71 NE9G23    29.93R
ELKO           CLOUDY    59  42  53 SW9       29.90S
POCATELLO, ID  MOSUNNY   66  40  38 VRB5      29.86S
BURLEY         CLOUDY    55  50  83 S8        29.87F
EVANSTON, WY   RAIN      44  39  82 SE3       29.98R
ROCK SPRINGS   LGT RAIN  48  42  80 SW13      29.95F
KEMMERER       LGT RAIN  43  37  81 N5        30.00R

$$


USA.gov is the U.S. government's official web portal to all federal, state and local government web resources and services.